ZHONGXING-2C (41021 NORAD) Tracking and Keplerian Element Data

This shows tracking and keplerian element data for the satellite.

Feedback or suggestion? Click here.




ElementValue
Catalog41021
NameZHONGXING-2C
Epoch Orbit3718
Epoch Day353.50184693
Epoch Year2025
RAAN260.6357
Inclination0.1465
Eccentricity0.0009169
Argument of Perigee326.1905
Mean Anonmoly145.617
Mean Motion1.0027432
Decay Rate-2.99E-06
L11 41021U 15063A 25353.50184693 -.00000299 00000+0 00000+0 0 9996
L22 41021 0.1465 260.6357 0009169 326.1905 145.6170 1.00274320 37188



Live tracking and technical data element details for ZHONGXING-2C (NORAD 41021). ZHONGXING-2C can be tracked NOW for your location showing map with azimuth and elevation plus other details from your city location.







IsCatalogInMostPopularTable: catalog: 41021, numindb: 646
Update: records affected: 1



GetName: 41021 ZHONGXING-2C

Hit Count: updated at: Thu, 21 May 2026 12:00:09 GMT